Wind_Speed
19 22 24 26 27 28 28 28 28 28 28 27 26 25 23 22 20 19 18 17 15 13 11 11 10 8 6 4 3 2 4 5 6 9 10 11 13 12 13 15 14 17 21 21 20 20 20 18 17 15 12 11 10 6 5 5 6 8 10 12 14 16 16 14 13 12 11 12 9 4 5 6 6 7 7 8 8 9 13 12 11 10 10 9 7 7 6 4
16 18 20 23 25 27 28 29 29 29 29 29 28 27 26 24 23 22 20 19 18 15 13 12 12 10 8 6 4 3 4 5 7 10 9 6 10 13 15 17 15 19 22 20 21 21 21 19 17 15 13 13 11 8 5 5 6 8 10 12 13 15 15 14 13 11 10 10 7 4 4 3 5 7 6 6 6 8 11 10 10 10 10 9 7 7 6 5
15 16 17 19 22 24 26 28 29 30 30 30 30 29 28 27 26 24 23 22 20 18 16 14 13 12 11 9 7 5 4 6 8 9 8 7 12 15 17 17 17 21 23 22 22 21 21 19 17 16 14 14 12 9 6 4 6 8 9 11 13 14 13 12 11 10 9 8 6 3 2 2 5 6 5 5 4 7 9 8 9 9 9 8 7 7 6 5
16 16 17 17 19 20 23 25 27 29 30 31 31 31 30 29 28 27 26 24 23 21 19 16 15 14 13 12 9 7 6 7 7 7 8 9 12 15 17 17 17 22 25 23 22 21 21 20 19 18 16 14 11 9 7 4 5 8 9 11 12 12 11 10 9 9 8 8 6 2 2 3 5 5 4 4 4 5 8 7 8 9 9 7 6 7 6 6
17 18 18 18 18 18 20 21 24 26 29 30 31 31 32 31 30 29 28 27 25 24 22 19 17 16 15 14 12 10 7 7 6 6 9 11 13 16 17 18 18 22 25 23 21 21 21 21 21 19 16 14 11 9 7 6 7 8 9 10 11 11 10 9 8 8 8 7 5 2 3 4 5 5 5 5 4 5 8 8 8 8 8 7 6 6 6 6
18 18 19 19 19 19 19 19 21 22 25 28 30 32 32 32 32 31 30 29 28 26 24 22 20 18 17 16 15 12 10 8 7 7 9 11 14 17 18 19 19 19 23 23 21 22 23 22 21 19 17 14 13 11 7 7 8 8 8 9 10 10 8 8 8 7 7 6 4 2 3 5 5 6 5 5 6 6 8 8 9 8 8 7 6 6 6 5
20 20 20 20 20 20 20 20 20 20 22 24 27 30 32 33 33 33 32 30 29 29 27 25 23 21 18 18 17 15 13 10 9 9 9 11 13 16 19 20 20 18 22 24 22 23 24 22 21 19 18 16 15 12 9 8 8 7 7 8 9 9 7 7 7 6 6 6 4 3 5 6 7 8 7 6 7 7 7 7 8 8 7 7 6 6 6 5
22 21 21 21 20 20 21 21 21 20 21 21 23 26 29 32 33 34 34 32 31 30 30 28 26 24 21 19 18 17 16 12 10 10 9 10 12 14 18 21 21 19 21 24 23 24 24 23 22 20 18 17 15 13 10 8 7 6 6 7 8 8 6 6 7 7 6 6 5 4 6 8 9 9 8 8 7 6 6 5 7 8 7 7 7 6 6 5
23 23 23 22 22 22 21 21 22 22 22 21 22 23 25 28 31 34 34 34 33 31 31 30 29 27 23 21 19 20 20 15 12 11 10 10 11 14 18 21 22 21 22 25 25 26 25 23 22 20 18 16 15 13 11 9 7 6 5 7 8 6 5 7 7 6 5 5 7 6 7 9 9 9 9 8 7 7 6 4 6 7 6 6 7 7 7 6
22 23 23 24 24 23 23 22 22 22 23 23 22 22 22 24 27 31 34 34 34 33 32 31 31 29 26 24 21 22 22 18 16 14 11 11 12 15 19 22 24 24 25 27 27 27 27 25 23 20 19 18 16 16 13 10 9 7 5 7 8 6 6 7 5 5 5 4 6 6 8 10 10 9 8 8 8 8 7 5 6 7 6 6 7 7 7 7
22 22 22 23 24 24 24 24 24 24 24 24 23 23 22 22 24 27 30 33 34 34 33 32 32 31 30 26 24 25 23 20 18 16 14 12 12 16 20 23 25 26 27 28 28 29 29 27 25 22 22 20 18 19 15 10 10 9 7 7 9 7 6 6 4 3 4 4 5 6 7 9 9 9 8 7 7 8 7 7 6 7 6 6 6 7 7 7
22 22 22 22 23 23 24 24 25 25 26 25 24 23 23 23 24 24 25 28 32 34 33 33 32 32 31 28 28 27 23 21 20 19 18 15 14 17 21 24 25 27 28 29 31 32 32 30 28 25 25 23 21 22 16 11 12 14 11 9 9 8 7 5 3 3 4 5 4 5 7 8 9 9 7 6 6 7 8 7 7 7 7 6 5 6 7 7
24 24 23 23 23 23 23 24 24 26 27 27 26 24 23 23 24 24 24 24 27 31 33 33 32 32 32 30 32 29 23 23 24 24 23 19 17 18 22 25 26 26 28 29 30 33 34 33 31 28 26 24 24 23 16 13 16 17 14 11 10 8 6 5 3 3 5 6 5 6 7 8 9 9 8 6 5 6 8 8 8 7 7 6 5 4 5 6
25 25 25 25 24 24 24 24 24 25 27 27 27 25 24 24 24 25 24 23 24 27 31 34 34 33 32 33 35 30 25 26 28 29 27 23 21 21 23 25 27 28 28 29 30 32 33 33 32 29 28 26 25 23 18 16 18 18 15 12 12 8 6 6 4 3 5 6 6 7 7 8 8 8 8 7 5 5 6 7 8 7 7 6 5 4 3 4
26 26 26 26 26 26 25 24 25 26 27 27 27 25 24 25 25 25 25 24 24 25 28 32 36 35 34 36 36 31 29 31 32 32 29 26 24 24 25 27 29 30 30 30 31 32 33 33 31 30 29 27 26 24 19 17 17 18 15 12 12 9 8 7 6 5 5 5 5 6 7 8 8 6 7 7 6 4 4 5 7 7 7 7 6 4 3 1
27 27 27 27 27 27 26 26 26 27 28 28 27 26 25 25 26 26 25 25 25 26 26 28 34 36 36 38 37 33 33 34 34 32 30 29 27 26 27 27 29 31 32 33 33 34 34 33 32 30 29 29 27 23 19 18 16 16 15 13 12 12 11 8 8 7 6 5 6 7 8 8 8 7 7 6 6 5 3 3 5 6 6 7 7 6 4 3
30 29 28 28 28 28 27 27 27 28 29 29 28 27 25 25 27 27 26 26 26 27 27 26 29 33 36 39 37 35 36 36 35 33 31 30 29 28 28 28 29 32 33 34 34 34 34 34 33 31 30 30 29 24 17 14 11 11 15 15 15 14 13 10 10 9 7 6 6 7 7 7 7 8 7 6 4 4 3 2 3 5 6 6 7 7 6 4
32 31 30 30 29 29 28 28 28 29 30 30 29 28 27 26 26 27 27 27 27 27 28 27 27 29 33 40 38 36 38 38 36 35 33 32 32 30 29 30 31 32 34 34 34 34 35 35 34 33 32 30 29 23 15 9 5 7 11 13 17 18 17 15 12 9 7 7 7 7 7 7 8 8 7 5 3 3 3 2 3 5 5 5 6 7 8 6
33 33 33 32 32 31 30 29 29 29 31 31 30 29 28 27 27 27 27 28 28 28 28 27 27 26 29 38 41 39 39 39 38 36 35 35 35 33 32 32 32 33 34 33 32 33 35 35 34 32 31 29 26 22 16 11 7 8 10 12 19 21 19 16 13 11 9 10 10 10 9 9 8 8 7 5 3 2 3 2 2 3 4 5 5 6 7 7
34 34 34 34 34 34 33 31 30 31 31 32 32 30 29 28 27 27 27 28 29 29 28 28 28 26 26 33 40 41 40 40 40 39 38 38 37 35 35 35 34 34 33 32 31 32 34 34 32 29 27 27 25 23 20 14 11 14 16 18 22 22 20 17 14 11 10 11 12 10 8 7 6 6 6 5 4 2 2 3 1 1 2 3 4 5 5 5
34 34 34 35 35 35 35 33 33 32 32 33 33 33 31 29 28 27 26 27 31 31 29 29 29 26 26 31 36 39 41 42 41 41 40 39 38 37 37 37 36 35 33 32 32 33 33 31 29 29 28 29 28 26 23 17 15 18 20 22 24 24 23 19 14 11 9 10 10 7 5 5 5 4 4 4 4 3 1 3 3 2 1 1 1 2 3 3
34 34 34 35 36 36 36 36 35 34 34 33 33 34 33 31 29 28 25 24 29 33 30 29 29 26 27 31 33 36 40 40 40 42 43 41 39 38 38 39 38 36 34 33 33 32 30 27 27 30 32 33 32 29 25 21 19 21 23 25 26 25 23 21 17 14 11 9 8 8 7 5 5 3 4 4 4 4 2 1 3 4 3 1 1 0 0 0
34 34 34 35 35 36 37 37 36 36 35 35 34 34 34 32 31 29 26 22 23 31 33 30 28 25 26 32 33 33 35 37 39 42 45 44 41 40 39 39 39 37 37 35 33 31 25 23 29 35 36 36 34 30 28 24 21 23 26 27 26 25 25 22 17 14 11 10 8 9 10 8 5 3 4 5 5 5 4 1 3 5 4 3 3 3 3 3
35 35 35 35 35 36 37 37 37 37 36 36 35 35 34 34 33 30 28 23 18 26 34 33 28 25 26 32 34 32 30 34 39 41 45 45 43 42 41 40 39 39 39 36 34 31 25 24 32 38 38 37 35 32 30 25 22 23 26 26 26 25 24 23 18 15 14 13 12 10 11 11 6 4 2 4 5 7 7 3 3 5 5 4 4 4 4 5
36 36 35 35 35 36 37 37 38 38 37 37 36 36 35 34 34 32 30 26 19 22 30 32 31 27 26 31 34 31 28 31 36 40 44 45 44 43 42 41 41 40 40 38 36 33 27 28 36 39 39 38 37 35 32 27 23 24 26 26 26 24 23 23 21 19 19 18 14 10 12 11 8 8 5 1 4 6 7 4 3 4 5 5 4 5 5 5
37 37 36 36 36 36 37 37 37 38 38 38 37 37 37 36 35 33 32 29 22 21 26 30 32 29 27 30 33 33 29 28 34 40 44 45 45 44 44 43 42 40 41 40 39 34 29 32 38 40 40 39 39 36 33 29 25 26 25 25 26 24 23 24 22 22 22 19 13 11 14 13 11 10 7 5 4 3 6 4 2 2 3 3 3 4 5 6
38 38 37 37 36 36 37 37 38 38 38 38 38 38 37 36 36 34 33 32 25 21 25 29 30 29 29 31 33 33 29 24 31 41 42 43 45 45 45 45 43 41 42 42 42 36 31 34 38 41 42 42 41 38 35 31 27 25 25 25 26 24 23 23 22 23 21 17 15 14 15 15 13 10 8 8 6 2 4 3 0 0 2 2 2 3 4 6
39 39 38 38 38 37 36 37 38 38 38 38 38 38 38 37 37 35 34 33 25 19 23 26 27 27 29 32 33 33 29 24 31 38 39 40 44 46 46 46 43 41 42 44 42 37 33 35 38 40 43 42 39 36 36 33 27 23 24 27 27 25 24 24 24 24 21 20 21 18 15 17 15 12 9 9 7 4 4 4 1 1 2 3 3 3 3 5
40 40 39 39 40 38 36 37 39 39 39 38 38 39 38 38 38 36 36 33 24 20 23 25 27 27 27 30 32 33 30 27 31 37 39 41 44 46 46 45 43 42 43 45 43 39 37 38 40 42 44 41 36 36 38 35 27 23 27 31 30 28 27 27 27 27 26 27 26 20 17 18 16 15 11 10 8 5 6 6 4 4 5 5 5 5 4 6
40 40 40 40 41 40 38 38 39 40 40 39 39 39 39 40 39 38 38 32 23 22 24 24 26 28 27 28 31 32 29 27 32 37 41 42 43 45 46 45 45 44 45 47 45 44 42 42 45 46 45 41 38 39 40 36 29 26 31 35 34 33 31 30 31 30 31 33 29 21 16 18 18 18 15 12 9 6 8 9 5 4 6 6 7 7 5 6
41 41 41 41 41 41 40 41 40 40 40 40 39 39 40 40 39 40 37 29 23 23 23 24 25 28 28 28 29 30 27 28 33 38 42 44 44 46 48 48 48 48 48 49 49 48 46 47 49 47 45 45 44 44 44 39 34 32 36 38 38 37 35 35 35 34 36 36 28 20 17 21 22 17 15 14 10 8 11 10 3 2 5 8 8 7 6 7
41 42 42 42 42 42 43 43 42 41 40 40 39 39 40 41 42 42 35 27 26 24 22 24 25 27 28 27 29 29 26 27 34 38 41 43 45 46 48 49 50 50 51 51 50 50 49 49 50 49 47 48 47 47 47 44 39 39 40 41 42 41 40 39 38 37 39 36 26 20 20 25 23 14 13 15 12 11 14 14 6 2 5 9 9 9 10 10
43 43 43 43 43 43 44 44 44 42 40 39 41 40 40 43 43 40 33 27 27 25 23 24 24 26 28 28 29 29 26 27 33 38 40 42 44 44 45 47 49 49 49 49 49 50 50 50 51 51 49 50 50 49 50 48 43 42 43 43 45 45 43 43 41 40 40 36 29 24 25 29 20 11 12 13 10 11 15 15 10 5 6 10 11 11 11 11
44 44 44 45 44 45 45 45 45 44 42 40 42 42 43 45 43 37 31 27 27 26 26 26 25 26 28 29 30 28 26 28 33 38 39 40 42 44 44 47 48 48 48 48 49 51 52 51 50 51 50 49 49 50 49 47 44 42 42 43 46 47 45 43 42 40 39 36 32 30 32 33 21 9 9 11 11 12 13 16 13 9 9 12 14 14 14 13
45 45 45 46 46 46 45 46 46 46 45 42 42 45 46 45 41 35 31 29 29 30 29 27 26 25 26 29 30 29 27 29 33 38 40 40 41 41 42 45 47 49 49 50 51 52 54 51 48 51 51 48 48 49 49 49 46 44 44 46 48 48 45 43 42 40 38 37 36 36 37 36 27 18 17 18 18 15 14 17 16 11 10 14 16 16 17 18
47 47 47 47 47 47 46 46 47 47 47 45 45 47 46 42 39 35 32 30 30 31 30 28 27 25 25 28 30 30 28 29 33 38 40 41 41 39 39 40 43 46 48 49 50 51 53 51 48 52 53 50 50 50 50 51 49 47 47 48 48 47 44 43 44 43 41 41 41 41 39 36 32 27 24 22 20 17 16 18 15 9 10 15 16 17 19 21
48 48 49 49 48 48 48 48 48 48 48 48 48 47 44 42 39 35 33 32 31 31 30 30 29 26 26 28 31 31 29 30 34 38 40 42 43 41 38 36 38 41 44 46 48 49 51 50 49 53 54 53 52 51 51 52 52 50 49 48 48 48 46 45 47 47 46 45 45 44 41 38 35 31 26 23 21 18 15 13 11 9 12 15 16 17 19 20
49 50 50 50 49 49 50 50 49 49 50 51 50 47 45 42 38 34 34 33 32 33 33 32 32 29 29 30 32 33 32 32 35 38 40 43 44 42 38 34 34 37 39 41 45 47 49 49 50 53 55 55 54 54 54 54 55 55 51 49 51 51 50 48 49 50 49 48 47 45 43 41 38 33 29 25 22 18 15 12 10 9 10 12 12 14 16 18
50 51 51 51 51 51 51 51 51 52 52 52 50 48 45 40 36 35 36 35 34 35 35 34 34 32 31 32 33 34 34 34 35 38 40 42 42 41 37 31 29 30 32 36 41 45 47 49 50 51 54 55 56 59 58 56 57 58 56 55 55 54 52 51 50 51 50 50 48 47 46 44 40 35 31 27 22 17 13 11 11 12 12 12 13 14 14 15
50 51 52 52 52 52 52 53 53 54 54 53 50 48 45 39 36 36 37 37 37 37 36 35 35 34 34 34 35 36 37 36 37 39 41 41 40 38 36 32 29 27 26 29 34 38 42 48 50 49 51 54 57 58 56 56 58 60 59 58 57 56 54 53 53 52 52 52 50 48 48 47 42 36 33 28 21 17 14 12 13 14 14 16 17 16 14 15
50 51 52 52 53 53 54 54 55 54 54 53 50 47 45 41 38 37 39 40 40 39 38 38 38 37 37 36 37 39 40 40 39 41 41 40 40 38 34 32 29 27 25 26 30 33 38 45 49 49 50 52 54 54 52 54 58 59 59 57 56 56 54 54 55 55 53 54 53 51 51 49 43 38 35 30 24 20 18 16 16 17 17 19 19 17 16 17
50 51 52 52 53 54 55 55 55 55 55 53 51 47 45 43 41 39 41 42 42 41 41 41 40 40 38 38 39 40 42 43 42 43 42 40 39 37 34 32 30 28 28 29 29 28 30 37 44 49 50 49 50 50 51 54 56 58 60 58 55 56 55 55 55 54 53 55 55 54 52 50 45 39 36 34 28 23 22 20 20 20 21 22 20 17 16 17
49 51 52 51 53 54 55 56 56 55 54 53 51 49 47 46 44 42 43 45 44 43 42 41 41 40 39 39 41 42 44 45 44 44 44 42 40 37 35 33 32 31 31 31 29 25 26 32 39 45 49 49 47 47 51 54 57 59 60 58 56 56 55 55 53 51 53 56 55 54 54 51 48 43 40 38 32 26 26 24 22 22 22 22 20 18 17 17
49 50 51 51 52 54 55 55 56 55 54 53 52 50 49 47 46 44 43 44 44 43 42 41 40 40 40 40 42 44 45 47 47 46 46 45 42 39 37 35 34 33 34 34 31 28 29 33 36 39 45 49 48 49 52 55 58 59 58 57 57 55 55 55 52 50 55 57 56 56 55 52 46 41 41 40 34 28 25 22 21 21 21 21 20 20 20 18
48 49 50 50 51 53 54 55 55 55 54 53 52 50 49 48 46 44 44 44 44 43 42 41 40 40 40 41 43 45 46 47 49 49 48 46 44 41 39 37 36 35 36 35 32 29 30 32 32 35 43 50 52 53 54 55 57 58 57 57 56 55 55 55 54 55 57 57 56 57 56 52 44 37 37 39 35 29 23 19 17 18 19 20 21 22 20 18
47 48 49 50 50 52 53 54 54 54 54 53 51 49 48 48 46 44 44 44 44 44 42 41 41 41 41 42 43 45 46 48 50 51 50 47 45 43 42 39 38 37 37 36 33 31 31 31 29 30 37 45 49 49 49 51 54 55 54 54 54 54 55 55 57 59 58 55 54 51 49 48 44 40 38 37 34 29 24 19 18 17 18 18 19 19 17 16
45 47 48 50 50 51 52 53 54 54 54 53 51 49 48 47 46 45 44 44 44 45 44 43 42 42 42 42 43 45 46 49 51 51 50 49 47 45 43 41 38 38 39 37 34 33 33 33 30 27 30 37 41 43 45 47 51 52 52 51 52 53 55 57 59 59 55 53 50 45 43 44 43 42 40 36 32 30 26 22 20 19 18 18 19 18 17 16
46 47 48 50 51 51 52 53 54 54 54 54 51 49 48 47 46 46 46 45 45 45 46 45 43 42 42 42 44 45 47 50 53 52 50 51 51 48 44 42 39 39 39 37 35 34 34 33 31 28 27 30 35 39 43 46 49 52 52 51 52 54 56 57 57 55 54 53 47 41 40 42 40 37 34 31 30 30 26 22 21 21 20 20 20 20 18 17
48 49 50 51 51 53 53 53 53 54 54 53 51 49 48 47 47 47 47 46 46 46 47 47 45 44 44 45 46 46 47 51 54 53 51 52 54 51 46 44 41 39 39 38 36 36 35 33 30 28 27 28 31 36 42 46 49 52 54 53 53 55 57 57 55 53 53 51 46 41 39 38 33 29 26 26 28 29 26 24 24 23 22 21 21 20 18 18
50 51 51 51 52 53 54 54 54 53 52 52 51 48 48 48 48 48 48 47 46 46 47 47 46 45 45 46 45 46 47 50 52 54 53 52 53 53 50 47 44 41 40 40 39 38 37 34 31 30 30 30 30 33 40 46 49 52 55 55 54 54 55 55 54 52 49 47 44 42 41 37 31 27 26 26 28 28 27 28 27 24 22 22 22 20 20 20
51 51 52 51 51 52 54 55 55 54 52 52 51 49 47 47 47 48 49 48 47 46 47 48 47 46 46 46 46 46 48 50 51 54 56 56 54 53 52 50 46 43 42 42 42 41 39 37 35 34 35 34 33 32 37 44 49 53 57 57 55 53 52 51 51 50 48 47 45 45 43 37 31 29 29 27 27 28 28 30 29 27 25 25 24 22 22 21
50 50 51 50 49 49 51 53 54 54 52 51 51 50 47 47 48 48 49 49 47 47 48 48 47 46 45 46 47 47 49 51 51 52 56 58 57 55 53 51 49 46 44 44 45 43 41 40 39 39 40 39 36 34 35 38 46 55 59 57 55 54 51 48 47 47 47 47 47 46 41 34 30 31 31 29 28 28 28 29 30 30 30 30 29 27 25 22
Wind_Direction
271 268 266 265 265 264 262 261 261 261 261 261 261 259 259 259 261 261 263 264 262 257 249 240 233 228 231 244 248 226 205 203 198 194 200 201 201 201 194 193 194 184 179 177 175 178 178 172 170 170 168 161 150 140 115 100 90 76 69 61 63 66 60 60 63 57 52 52 55 27 10 35 61 70 60 50 46 55 55 50 52 55 59 55 48 65 77 89
281 277 272 269 266 265 264 262 261 260 259 259 259 259 258 257 257 258 260 261 262 259 252 244 237 230 228 235 239 237 217 200 199 201 200 188 190 191 190 194 191 185 181 178 178 178 177 175 176 177 170 159 149 145 140 127 110 86 72 61 58 62 63 62 60 55 53 55 57 23 4 42 78 79 67 50 46 60 54 47 58 59 60 59 52 64 72 79
287 286 282 278 273 268 265 264 262 261 260 258 258 258 257 256 255 255 257 257 259 259 255 248 241 234 228 231 232 234 231 210 206 204 191 173 188 191 192 196 191 187 184 182 183 179 177 180 181 176 166 161 158 154 155 149 120 96 77 65 60 59 61 66 67 62 54 53 57 26 2 76 91 85 75 58 52 67 60 50 63 66 63 61 57 62 69 78
284 285 285 285 282 278 272 267 264 262 261 260 258 257 256 255 254 253 253 254 255 256 256 251 244 237 230 229 229 228 234 227 217 206 193 187 194 194 195 200 195 190 188 186 186 183 183 184 178 169 165 166 168 166 164 165 132 105 82 66 61 55 55 68 75 70 59 55 59 27 12 74 89 91 91 79 66 74 75 66 69 75 71 65 63 61 65 75
282 281 282 283 284 284 281 277 271 266 263 261 259 258 256 255 253 252 251 251 252 253 253 251 247 240 233 229 228 226 229 232 222 207 200 196 198 198 198 204 202 195 193 191 188 188 188 185 176 171 172 174 180 182 172 162 136 107 84 70 60 50 51 69 76 72 68 66 65 25 21 64 86 92 92 90 83 86 88 85 78 78 79 75 68 62 63 71
280 280 280 279 280 281 282 282 279 275 270 265 261 259 258 256 254 252 250 249 249 250 250 250 248 242 236 230 229 227 226 228 225 214 206 200 202 201 198 204 210 203 197 195 192 190 187 184 180 177 178 181 189 191 178 162 143 116 90 73 62 50 51 72 77 75 74 75 79 41 32 63 88 89 83 89 96 97 93 91 87 82 84 84 75 67 66 72
279 278 279 278 278 278 278 279 280 279 277 272 267 262 259 257 255 253 250 248 247 247 248 248 247 244 238 232 229 229 226 225 225 222 213 205 204 202 198 204 213 208 199 199 196 190 187 185 183 180 180 187 194 195 186 168 156 140 105 80 69 54 50 75 80 82 82 90 99 65 57 70 79 80 77 81 91 97 95 93 93 89 89 91 88 81 77 80
278 277 277 277 277 277 277 276 276 277 277 276 273 268 263 259 257 255 253 249 246 245 245 246 246 244 240 234 230 227 227 224 217 220 220 211 204 200 198 201 211 210 200 200 197 190 189 186 184 181 182 193 202 205 198 174 167 169 128 97 82 63 57 72 78 86 86 104 113 83 79 83 76 76 76 78 82 88 94 95 98 98 96 98 100 98 96 96
277 277 277 276 276 276 276 276 275 275 274 274 274 273 270 265 260 256 254 252 249 245 243 243 244 244 241 236 231 226 229 225 212 215 223 217 204 198 197 199 207 209 201 201 199 193 190 186 184 184 187 200 209 214 210 189 186 196 153 114 96 80 74 74 78 85 82 108 119 97 87 86 79 76 74 76 79 81 87 91 99 103 103 103 106 111 114 117
278 278 277 277 276 275 275 275 275 274 273 272 272 272 273 271 266 260 256 254 252 249 245 242 242 243 241 238 232 228 230 227 215 213 220 218 205 197 198 198 203 206 201 202 202 195 191 188 189 190 193 203 212 220 222 205 199 209 186 134 114 108 95 86 84 86 81 102 119 105 90 86 83 79 75 73 75 78 80 80 86 96 104 107 109 116 124 130
283 281 279 278 277 277 276 275 274 274 273 271 270 270 271 272 271 267 262 257 254 252 249 245 241 241 241 240 235 230 229 228 220 213 216 216 208 200 200 201 203 205 202 201 202 197 193 193 194 194 197 205 213 225 230 212 205 216 206 156 131 125 106 93 84 88 92 99 116 109 88 83 82 79 76 70 68 74 74 71 72 80 90 98 105 116 129 139
287 285 284 282 280 279 278 277 276 274 273 271 270 269 269 270 271 271 268 263 257 253 251 248 244 240 240 239 236 234 229 225 221 215 214 212 208 202 202 205 207 209 206 202 201 198 196 197 197 197 202 207 213 226 233 216 213 218 204 167 141 128 105 88 81 104 100 94 109 103 86 80 75 69 69 65 63 69 69 65 61 64 73 79 89 108 127 140
288 287 286 285 284 283 281 280 279 277 274 273 271 269 269 269 269 269 270 269 263 256 251 248 246 242 239 237 236 235 227 222 221 217 213 209 206 204 203 205 207 213 214 210 206 203 201 201 200 201 205 208 215 228 231 213 213 214 200 168 143 128 100 81 83 101 88 85 92 85 79 77 70 60 56 53 53 65 69 65 57 51 56 61 65 84 117 137
288 287 287 286 285 284 284 283 282 280 278 276 274 271 269 269 268 267 267 268 266 261 253 248 245 241 239 237 236 233 225 221 221 219 215 208 206 206 204 204 205 211 217 217 214 209 206 205 205 205 205 208 218 231 228 209 210 213 200 165 144 127 88 72 66 71 68 74 80 74 72 71 68 59 51 42 41 61 68 68 63 50 44 48 48 48 82 127
287 287 286 286 285 284 284 284 284 282 280 279 278 275 272 269 268 267 265 264 264 263 258 250 244 240 238 237 234 230 225 223 223 222 218 211 207 208 208 205 203 207 213 217 217 214 211 210 209 206 206 210 219 230 226 210 211 212 196 161 141 120 86 66 59 63 62 77 92 80 71 67 62 60 56 48 46 60 63 68 71 61 48 44 41 31 29 72
285 285 285 285 285 284 283 283 283 283 281 280 280 278 276 272 269 267 266 264 262 261 261 255 248 241 238 238 234 229 226 225 227 226 222 217 211 210 212 210 206 205 209 214 217 216 214 213 211 208 208 212 218 227 224 214 213 207 187 159 137 116 95 77 73 79 72 86 107 90 77 68 57 55 59 57 59 67 63 72 85 76 62 53 49 38 23 8
284 284 284 284 284 283 283 283 283 282 280 279 280 279 278 276 272 269 266 264 261 259 259 258 253 245 240 240 235 229 227 227 227 226 223 222 219 215 215 215 211 207 208 214 217 217 216 215 214 212 211 213 218 224 221 213 212 203 187 160 134 120 113 104 99 92 74 76 97 95 87 82 75 66 56 51 61 77 75 79 102 95 77 61 57 50 39 19
283 283 283 283 282 282 282 282 282 281 280 278 278 279 279 277 275 272 269 265 263 260 258 257 257 250 242 241 236 229 228 227 227 226 222 221 221 219 218 218 216 212 211 216 219 218 217 217 217 215 215 217 220 222 217 208 206 207 196 155 126 121 121 121 118 112 103 101 104 107 105 104 98 81 61 49 56 86 99 105 113 114 102 75 63 55 46 32
281 281 281 281 281 282 281 281 281 280 280 278 277 278 279 279 277 275 272 267 263 261 259 255 254 253 246 242 239 232 228 226 225 224 222 220 221 220 219 220 221 218 216 218 220 219 218 220 220 219 220 222 223 223 218 212 198 192 191 153 127 122 123 128 129 124 127 127 123 120 112 105 98 81 65 57 52 84 123 132 121 127 126 106 83 63 47 35
280 280 279 279 280 281 281 280 280 279 279 279 278 277 277 277 277 277 275 272 266 261 259 257 252 252 251 247 242 236 230 226 224 223 222 221 221 221 221 222 224 223 221 221 221 220 220 223 226 226 226 225 223 223 220 212 197 190 186 161 140 136 135 135 137 133 135 139 137 130 113 97 89 78 64 53 47 67 132 154 161 178 149 125 104 84 55 31
279 279 278 278 278 278 279 279 279 279 279 278 279 279 277 276 275 276 277 278 273 263 258 258 254 249 250 250 246 240 234 229 224 222 224 222 220 221 223 224 226 226 225 223 221 220 221 225 228 225 222 222 221 221 221 213 200 196 186 165 153 148 143 144 151 153 151 152 153 160 153 109 88 80 60 42 30 35 108 181 196 220 205 145 97 88 69 38
278 278 277 277 276 277 277 277 277 278 278 278 278 279 278 277 275 274 274 280 280 272 262 256 254 252 249 249 249 243 237 234 227 223 224 223 219 220 223 225 227 227 226 226 224 222 223 225 224 220 217 218 219 219 219 213 206 200 186 173 164 156 154 157 162 164 166 164 167 189 187 140 94 69 42 22 1 6 32 187 207 209 207 199 199 223 218 33
277 277 277 276 276 276 276 276 276 276 277 277 278 278 278 277 276 274 271 275 282 279 270 259 253 252 250 248 247 244 238 233 229 225 224 223 220 218 221 225 227 227 227 228 228 227 228 223 218 216 215 217 219 219 218 213 211 203 188 179 173 167 166 164 165 174 180 185 190 199 191 161 118 79 25 4 346 341 350 330 215 213 217 221 218 226 240 245
277 277 276 276 275 275 275 275 275 275 275 276 276 276 277 277 276 275 272 271 277 278 274 267 257 249 248 248 246 245 240 230 228 227 225 223 221 219 219 223 225 228 229 229 229 229 229 221 215 215 216 219 220 220 218 213 212 207 194 187 184 179 172 168 179 193 198 206 206 207 199 178 159 146 88 352 337 336 331 310 248 232 232 237 227 227 240 246
277 276 276 275 275 275 275 274 274 274 274 274 275 275 276 277 276 276 274 271 273 276 276 273 265 254 248 249 248 246 241 230 225 227 226 222 221 219 218 221 223 226 229 229 229 227 224 218 215 215 216 219 221 220 218 214 211 208 201 195 193 188 179 179 191 203 209 208 204 218 210 192 199 185 158 287 303 333 324 299 280 257 244 243 232 229 236 242
277 276 276 275 274 274 274 274 273 274 273 272 273 274 275 276 276 276 275 272 273 278 277 273 269 260 250 248 248 244 240 230 221 224 226 222 220 218 216 219 221 224 228 229 230 227 222 217 214 215 217 219 221 220 219 215 211 208 205 202 201 197 193 194 199 207 213 206 205 233 222 210 222 203 183 227 243 310 307 280 283 260 244 250 244 239 241 242
275 275 275 275 274 273 273 273 273 273 272 271 271 271 272 274 274 275 275 274 278 283 278 273 268 262 253 248 247 245 241 229 221 223 225 222 220 218 217 217 218 221 226 228 229 227 222 218 215 215 217 219 221 220 219 218 214 209 205 207 209 206 207 212 214 219 222 215 217 228 227 228 223 201 208 227 219 255 267 241 349 288 243 248 251 253 253 252
273 273 274 274 273 272 272 272 273 272 271 270 270 269 270 271 272 273 274 274 279 283 277 274 271 264 256 249 247 246 240 228 221 222 222 221 219 218 217 217 216 218 223 228 230 228 223 221 218 216 218 220 221 220 219 221 219 210 206 212 214 212 216 223 228 231 232 228 225 222 229 238 217 194 219 231 226 238 216 201 179 224 269 278 275 274 274 271
271 271 272 272 272 272 271 271 271 272 271 269 268 268 268 268 269 270 271 271 276 279 274 274 273 266 258 252 248 246 240 227 221 219 216 217 218 217 216 216 215 216 221 226 229 228 224 222 219 217 219 222 223 220 219 223 222 210 208 214 215 215 220 227 231 232 233 233 231 224 230 243 220 196 211 229 232 235 213 217 227 243 262 281 296 292 290 290
270 270 270 271 271 271 270 269 269 270 270 268 267 267 266 266 267 268 268 271 276 276 273 273 273 269 262 254 250 248 241 228 222 220 215 213 215 215 214 214 214 215 218 222 224 224 223 222 219 217 217 219 220 219 219 223 223 214 213 216 217 218 221 227 229 229 232 234 234 228 232 249 234 205 207 222 223 224 218 219 242 269 260 270 285 283 289 303
269 269 268 269 270 270 270 268 267 268 269 268 266 266 266 266 266 265 266 272 276 272 271 272 273 272 266 256 250 248 243 229 222 220 217 213 212 212 211 211 212 213 215 219 221 221 220 220 220 217 215 215 215 216 217 220 221 216 214 216 219 222 223 227 228 227 232 236 237 235 239 250 240 210 208 223 221 222 211 199 209 274 241 253 275 290 304 307
269 268 267 267 267 269 268 267 267 266 266 267 266 265 265 265 264 264 267 274 273 270 270 271 271 270 267 258 249 245 242 233 225 220 217 214 213 213 211 211 212 213 215 217 219 219 219 219 220 218 215 213 212 214 216 217 218 217 214 214 218 222 224 228 230 230 234 238 239 237 240 247 241 214 213 225 223 217 203 195 197 203 232 255 282 313 322 312
269 268 267 265 265 266 267 266 266 266 265 265 266 264 263 264 264 265 269 271 269 268 266 265 265 264 262 257 249 242 238 234 227 222 218 215 214 213 211 212 213 214 216 219 220 220 220 219 220 220 218 214 213 214 217 217 217 217 215 214 217 221 224 229 233 233 235 237 238 236 240 244 237 205 212 229 236 230 213 207 208 200 231 259 275 296 313 312
268 267 267 266 264 264 265 266 266 266 265 263 263 263 262 263 264 266 267 267 266 263 259 258 260 261 260 255 249 241 233 230 228 223 219 217 215 214 211 211 213 213 215 218 221 222 222 220 219 220 220 217 215 217 219 219 219 221 219 217 220 223 225 230 235 237 237 237 237 237 241 244 237 213 224 239 241 233 215 210 214 213 229 254 269 281 296 302
267 266 266 265 264 263 264 265 265 265 264 262 261 262 262 263 265 265 263 261 260 258 256 256 257 258 258 254 250 244 233 227 226 223 219 216 215 215 214 212 213 214 214 216 219 222 224 222 220 222 222 219 218 218 220 219 219 221 221 220 222 224 227 232 236 238 238 238 237 237 241 247 247 243 241 238 237 237 226 219 223 229 236 253 268 278 289 293
266 265 265 264 264 263 262 263 263 263 263 261 260 260 262 264 263 261 257 255 255 256 256 255 254 251 248 247 248 245 235 225 223 222 219 217 215 214 214 213 214 217 217 218 219 221 224 222 220 223 224 221 220 219 219 219 219 220 221 221 223 224 228 233 237 237 237 238 239 239 241 247 251 249 243 240 244 252 247 235 236 246 247 255 269 280 284 284
265 264 263 263 262 261 261 261 261 261 261 260 259 259 261 261 259 257 255 253 252 253 252 250 249 245 239 238 243 243 236 225 222 221 219 219 217 214 213 212 213 216 217 220 222 223 225 223 220 222 224 223 222 220 219 219 221 222 223 223 224 225 227 231 234 236 236 239 242 242 243 246 250 251 249 247 250 258 261 255 257 262 257 262 275 280 276 272
263 263 262 261 260 259 259 259 259 259 259 258 257 258 259 259 257 255 253 251 249 249 248 247 246 241 234 232 235 238 234 226 223 221 220 221 219 216 213 211 212 215 216 220 223 224 225 224 221 222 224 224 224 223 219 217 219 222 223 222 223 225 228 230 231 234 236 238 243 245 245 247 249 251 253 253 256 264 274 274 268 266 268 273 276 269 261 259
262 261 260 260 259 257 257 257 257 257 256 256 256 257 258 257 255 251 249 248 246 245 245 244 243 239 234 229 228 231 231 226 221 221 221 222 222 217 213 209 208 211 215 220 223 224 225 224 221 220 223 223 222 223 220 215 216 220 220 220 221 223 227 231 233 235 236 239 243 246 247 248 250 252 255 257 261 268 275 272 263 260 264 265 259 252 248 251
259 259 258 258 257 256 255 255 255 255 255 255 255 256 256 254 250 247 245 244 244 243 243 242 241 238 234 228 223 224 228 225 221 221 221 221 222 218 214 211 205 202 209 218 223 225 226 224 220 218 221 222 221 221 220 216 216 219 220 219 219 221 224 228 231 233 235 238 242 247 250 251 253 255 258 259 263 269 268 260 256 255 258 260 257 249 242 247
258 256 256 255 255 254 253 253 253 254 254 253 253 253 253 250 246 243 243 243 242 242 240 239 238 236 231 226 221 219 223 224 220 220 221 221 222 219 214 213 207 199 202 213 218 221 224 225 221 217 219 221 221 221 220 218 218 220 221 220 219 221 224 227 229 229 232 236 240 245 250 253 255 258 261 262 263 265 261 251 249 250 254 261 261 250 239 242
257 255 254 253 253 253 252 251 251 252 252 252 252 252 250 248 244 240 240 241 240 239 239 237 237 235 230 224 220 217 220 223 222 221 222 222 222 220 214 211 208 202 203 209 213 218 225 229 225 220 218 218 220 220 219 218 218 219 221 221 220 221 224 227 229 229 231 234 238 243 248 251 254 255 258 259 258 260 261 258 255 255 256 259 258 251 246 247
257 255 253 251 251 250 250 250 250 250 250 251 251 250 248 246 243 239 238 239 239 238 239 239 238 237 231 224 221 219 219 223 223 223 224 223 222 219 212 208 207 206 207 207 206 210 224 231 227 221 219 217 217 218 217 216 216 218 221 220 219 221 223 226 230 231 233 235 237 243 246 249 252 254 256 256 254 259 266 264 258 256 254 251 249 251 258 260
258 254 252 250 249 249 249 249 249 248 248 248 248 248 247 245 243 239 237 238 239 239 240 239 238 237 232 225 221 221 220 222 223 224 224 223 222 218 211 208 208 208 209 208 202 203 216 225 225 221 219 217 215 214 214 214 215 217 219 220 219 220 221 224 228 232 235 236 237 241 244 247 250 254 257 257 252 256 264 258 249 248 245 243 246 254 261 260
258 254 251 249 247 247 247 247 247 247 247 247 247 246 246 245 243 239 236 236 237 238 238 238 237 235 232 226 223 223 223 222 223 225 225 224 222 219 213 210 211 211 212 210 203 202 212 221 226 224 219 216 215 214 213 214 215 216 217 218 219 218 219 222 225 229 232 235 237 239 241 244 246 249 256 256 251 251 252 242 235 236 236 241 250 256 257 253
256 253 251 249 246 246 246 246 246 246 245 245 245 244 244 244 242 239 236 234 235 236 235 234 234 233 231 228 225 224 224 224 223 224 226 225 223 219 215 213 213 214 214 211 204 202 209 216 222 227 224 218 218 219 217 216 217 217 217 218 218 218 220 223 225 228 232 235 237 239 241 244 246 247 251 253 252 251 247 240 239 239 239 246 253 255 253 245
253 251 250 249 246 244 243 244 244 244 244 244 243 242 241 241 239 237 234 232 231 232 232 231 230 230 229 227 226 224 224 225 226 225 225 226 224 220 217 216 218 218 216 212 205 202 207 211 212 219 223 219 217 220 219 217 218 218 218 218 217 217 221 224 227 230 232 235 237 239 241 244 246 248 249 249 251 252 251 251 252 246 245 253 257 254 248 243
250 247 246 246 246 244 242 241 242 243 243 242 241 240 239 238 236 234 233 231 228 229 230 229 228 228 228 226 224 223 222 224 227 227 225 225 226 223 218 217 220 222 219 213 206 204 210 212 209 209 213 214 214 215 217 217 217 217 217 216 214 216 220 225 228 230 231 234 237 238 239 241 243 245 245 245 248 251 251 253 252 249 251 258 260 256 251 251
247 244 242 242 243 243 241 239 239 241 241 241 239 238 237 235 235 233 232 230 227 226 228 228 226 225 225 224 224 223 222 223 226 227 224 224 226 226 221 218 220 224 222 214 207 208 212 213 212 211 208 207 210 212 213 216 217 217 216 214 213 215 220 224 228 229 230 233 236 237 238 238 236 236 239 242 246 247 246 247 249 252 256 260 262 262 261 265
244 242 241 239 239 240 240 238 237 237 238 238 237 236 235 234 233 233 231 228 225 224 226 227 226 225 224 224 224 223 222 223 225 226 225 224 225 226 224 220 220 225 225 216 209 209 211 212 215 217 215 208 206 209 211 213 217 217 216 214 214 217 220 224 226 227 227 229 232 236 239 235 227 227 236 241 243 242 241 244 250 256 258 257 260 267 274 277
243 240 239 239 238 238 239 238 237 235 235 235 235 233 232 232 232 231 230 227 224 223 224 225 225 224 223 224 225 223 222 223 223 223 225 224 223 224 224 221 220 225 226 218 211 208 209 214 218 223 224 214 204 209 212 211 215 217 215 214 215 218 221 223 225 226 227 230 233 237 239 232 223 225 235 242 246 246 243 243 249 254 256 258 263 272 280 279
244 241 239 238 237 237 237 237 237 236 233 233 233 231 229 229 229 229 228 226 224 222 223 224 224 223 222 223 224 224 223 223 223 222 224 226 225 222 221 219 217 222 225 219 212 209 210 214 219 225 227 216 205 209 214 213 217 217 213 212 215 218 221 224 227 227 228 232 235 237 236 231 226 230 238 246 252 255 250 246 247 252 256 259 264 272 276 273
Height
5881 5881 5881 5881 5881 5881 5881 5882 5882 5883 5884 5884 5885 5886 5887 5888 5888 5888 5889 5889 5890 5890 5891 5891 5892 5892 5892 5893 5893 5893 5893 5893 5893 5894 5894 5894 5894 5895 5897 5898 5899 5900 5901 5902 5902 5903 5904 5905 5906 5907 5907 5908 5908 5909 5909 5909 5909 5909 5909 5908 5908 5908 5909 5909 5908 5908 5908 5907 5906 5906 5905 5905 5905 5905 5905 5905 5905 5904 5904 5904 5904 5905 5905 5906 5907 5907 5907 5908
5880 5880 5879 5879 5879 5879 5879 5879 5880 5880 5881 5882 5883 5884 5885 5886 5886 5887 5887 5888 5888 5889 5890 5890 5891 5891 5892 5892 5892 5892 5892 5892 5893 5893 5893 5893 5894 5895 5896 5897 5898 5899 5900 5901 5902 5903 5904 5905 5906 5906 5907 5908 5908 5909 5909 5909 5909 5909 5909 5909 5909 5909 5909 5909 5909 5909 5909 5908 5907 5907 5906 5906 5906 5906 5906 5906 5906 5905 5905 5905 5905 5906 5906 5907 5908 5908 5908 5909
5879 5878 5878 5878 5877 5877 5877 5877 5878 5878 5879 5879 5880 5881 5882 5883 5884 5885 5885 5886 5887 5887 5888 5889 5890 5890 5891 5891 5892 5892 5892 5892 5892 5892 5893 5893 5894 5894 5895 5896 5897 5898 5899 5900 5902 5903 5904 5905 5905 5906 5907 5907 5908 5908 5909 5909 5909 5909 5909 5909 5909 5909 5909 5909 5909 5910 5910 5909 5908 5907 5907 5907 5906 5906 5906 5907 5906 5906 5905 5906 5906 5906 5907 5908 5908 5909 5909 5910
5877 5877 5877 5876 5876 5876 5875 5875 5875 5876 5876 5877 5877 5878 5879 5880 5882 5883 5883 5884 5885 5885 5887 5887 5888 5889 5889 5890 5891 5891 5892 5891 5891 5892 5893 5893 5893 5894 5894 5895 5896 5897 5898 5899 5901 5903 5904 5904 5905 5906 5906 5907 5908 5908 5909 5909 5909 5909 5909 5909 5910 5910 5909 5909 5909 5910 5910 5910 5909 5908 5908 5907 5907 5907 5907 5907 5907 5907 5906 5907 5907 5907 5908 5909 5909 5909 5910 5911
5876 5875 5875 5875 5874 5874 5874 5874 5874 5874 5874 5874 5875 5876 5876 5878 5879 5880 5881 5882 5882 5883 5884 5886 5887 5887 5888 5889 5889 5890 5891 5891 5891 5892 5892 5893 5893 5894 5894 5894 5895 5896 5897 5899 5900 5902 5903 5904 5904 5905 5906 5907 5908 5908 5909 5909 5909 5909 5910 5910 5910 5910 5910 5909 5909 5910 5910 5911 5910 5909 5908 5908 5908 5908 5908 5908 5908 5907 5907 5908 5908 5908 5909 5909 5910 5910 5911 5911
5874 5873 5873 5873 5873 5873 5872 5872 5872 5872 5872 5872 5872 5873 5874 5875 5876 5877 5878 5879 5880 5881 5882 5883 5885 5886 5887 5887 5888 5889 5890 5890 5890 5891 5891 5892 5892 5893 5893 5894 5894 5896 5897 5898 5899 5901 5902 5903 5904 5905 5906 5907 5907 5908 5909 5909 5909 5909 5910 5910 5910 5911 5911 5909 5909 5910 5911 5912 5911 5910 5909 5909 5909 5909 5908 5908 5908 5908 5908 5908 5909 5909 5910 5910 5910 5911 5911 5912
5871 5871 5871 5871 5871 5871 5871 5870 5870 5870 5870 5870 5870 5870 5871 5872 5873 5874 5875 5877 5878 5879 5880 5881 5882 5884 5885 5886 5887 5888 5888 5889 5889 5890 5890 5891 5891 5892 5892 5893 5894 5895 5897 5897 5899 5900 5901 5903 5904 5904 5905 5906 5907 5908 5908 5909 5909 5910 5910 5910 5910 5911 5911 5909 5909 5910 5912 5912 5912 5911 5910 5910 5909 5909 5909 5909 5909 5909 5909 5909 5910 5910 5911 5911 5911 5911 5912 5912
5869 5869 5869 5869 5868 5868 5868 5868 5868 5868 5868 5868 5868 5868 5868 5869 5870 5871 5872 5873 5875 5876 5877 5878 5880 5881 5883 5884 5885 5886 5887 5887 5888 5888 5889 5890 5890 5891 5891 5892 5893 5894 5896 5897 5898 5899 5901 5902 5903 5904 5904 5905 5906 5906 5907 5907 5909 5909 5910 5910 5910 5910 5911 5910 5909 5911 5912 5913 5913 5912 5911 5911 5910 5910 5910 5910 5910 5910 5910 5910 5910 5911 5911 5912 5912 5912 5913 5913
5868 5867 5867 5866 5866 5866 5866 5866 5866 5866 5866 5866 5866 5866 5866 5866 5867 5867 5869 5870 5872 5873 5875 5876 5877 5879 5881 5882 5884 5884 5884 5886 5887 5887 5888 5888 5889 5890 5890 5891 5892 5893 5895 5896 5897 5898 5899 5901 5902 5903 5903 5904 5904 5904 5905 5906 5908 5909 5910 5909 5909 5910 5911 5910 5910 5911 5912 5913 5913 5912 5912 5912 5911 5911 5911 5911 5911 5911 5911 5911 5911 5911 5912 5912 5912 5913 5913 5914
5865 5865 5865 5865 5864 5864 5864 5863 5863 5863 5863 5863 5864 5864 5864 5864 5864 5865 5866 5867 5869 5871 5872 5874 5875 5877 5878 5880 5882 5882 5882 5884 5885 5886 5886 5887 5888 5889 5889 5889 5890 5891 5893 5894 5895 5897 5898 5900 5900 5901 5902 5902 5903 5903 5903 5905 5907 5909 5909 5908 5908 5909 5910 5909 5910 5911 5912 5913 5913 5913 5913 5912 5912 5912 5912 5912 5912 5912 5912 5912 5912 5912 5912 5913 5913 5914 5914 5915
5863 5863 5863 5862 5862 5862 5861 5861 5861 5861 5861 5861 5861 5862 5862 5862 5862 5862 5863 5864 5866 5867 5869 5871 5872 5874 5875 5878 5879 5879 5880 5882 5884 5885 5885 5885 5886 5887 5888 5888 5888 5889 5890 5892 5894 5896 5897 5898 5899 5900 5901 5901 5902 5902 5903 5905 5907 5909 5909 5908 5908 5908 5909 5909 5910 5911 5911 5912 5913 5913 5913 5913 5913 5913 5913 5913 5913 5913 5913 5913 5913 5912 5913 5913 5914 5914 5915 5915
5862 5861 5861 5860 5860 5860 5859 5859 5859 5858 5858 5858 5858 5859 5860 5860 5860 5860 5861 5862 5863 5864 5866 5868 5870 5871 5873 5875 5875 5876 5879 5881 5882 5883 5883 5883 5884 5884 5886 5886 5887 5888 5888 5889 5891 5892 5893 5895 5896 5898 5899 5900 5901 5901 5902 5905 5907 5908 5908 5907 5907 5908 5908 5909 5910 5910 5911 5912 5913 5913 5913 5913 5913 5913 5914 5914 5914 5914 5914 5914 5914 5913 5913 5913 5914 5915 5915 5916
5860 5860 5859 5858 5858 5858 5857 5857 5857 5856 5856 5855 5856 5857 5858 5858 5858 5858 5859 5859 5859 5860 5862 5864 5866 5867 5870 5871 5871 5874 5878 5879 5879 5879 5880 5881 5882 5882 5883 5884 5886 5887 5888 5888 5888 5889 5890 5892 5894 5896 5897 5899 5900 5900 5902 5905 5906 5907 5907 5906 5906 5907 5908 5909 5909 5910 5910 5911 5912 5913 5914 5914 5914 5914 5914 5915 5915 5915 5915 5915 5915 5914 5914 5914 5914 5915 5916 5916
5859 5858 5857 5857 5856 5856 5855 5855 5855 5854 5853 5853 5853 5855 5856 5855 5855 5855 5856 5856 5856 5857 5857 5859 5861 5863 5865 5866 5867 5872 5875 5875 5875 5875 5877 5879 5879 5880 5880 5882 5884 5885 5887 5887 5887 5888 5889 5890 5892 5894 5896 5898 5898 5898 5901 5904 5905 5906 5906 5905 5906 5907 5907 5909 5909 5910 5910 5911 5913 5913 5914 5915 5915 5915 5915 5915 5916 5916 5916 5916 5916 5915 5915 5915 5915 5915 5916 5917
5857 5856 5856 5855 5854 5854 5853 5853 5852 5851 5851 5851 5851 5852 5853 5853 5852 5852 5853 5853 5854 5854 5854 5855 5856 5858 5860 5860 5863 5869 5870 5870 5870 5871 5874 5876 5877 5877 5877 5879 5880 5882 5884 5886 5887 5887 5888 5889 5891 5893 5895 5896 5897 5897 5899 5902 5904 5905 5906 5905 5905 5906 5907 5909 5909 5910 5911 5912 5913 5914 5914 5915 5915 5915 5915 5916 5916 5916 5916 5917 5917 5916 5916 5916 5916 5916 5916 5916
5855 5854 5854 5853 5852 5852 5851 5851 5850 5849 5848 5848 5849 5850 5851 5850 5850 5850 5850 5850 5851 5851 5851 5852 5852 5854 5856 5855 5860 5865 5865 5865 5867 5870 5872 5874 5875 5875 5875 5876 5877 5879 5881 5883 5884 5885 5887 5889 5890 5892 5893 5895 5895 5895 5897 5900 5902 5904 5905 5905 5905 5905 5907 5909 5910 5911 5912 5913 5914 5914 5914 5915 5915 5915 5915 5916 5917 5917 5917 5917 5917 5917 5917 5917 5917 5917 5917 5917
5852 5852 5851 5850 5850 5849 5849 5849 5848 5847 5846 5846 5846 5847 5848 5848 5847 5847 5847 5847 5848 5848 5848 5849 5849 5851 5852 5852 5856 5860 5860 5862 5865 5868 5870 5872 5873 5874 5874 5875 5875 5876 5878 5879 5881 5883 5886 5887 5889 5890 5892 5893 5893 5894 5896 5898 5901 5903 5905 5904 5903 5904 5907 5909 5911 5912 5913 5914 5914 5914 5914 5915 5915 5916 5916 5916 5917 5917 5917 5917 5917 5917 5917 5917 5918 5918 5917 5917
5849 5848 5848 5847 5847 5847 5847 5846 5846 5845 5843 5843 5843 5844 5844 5845 5844 5844 5844 5844 5844 5845 5845 5846 5847 5848 5849 5848 5851 5855 5856 5858 5862 5864 5867 5869 5870 5872 5872 5872 5872 5873 5874 5876 5878 5881 5883 5885 5887 5888 5889 5890 5891 5892 5895 5898 5901 5903 5905 5904 5903 5904 5907 5909 5911 5912 5913 5914 5915 5915 5915 5915 5915 5915 5916 5916 5917 5917 5917 5917 5917 5917 5917 5917 5917 5917 5918 5918
5845 5845 5845 5844 5844 5843 5843 5844 5843 5842 5841 5840 5841 5841 5841 5841 5841 5841 5841 5841 5841 5841 5842 5843 5844 5845 5846 5845 5846 5849 5852 5854 5858 5861 5862 5864 5866 5869 5870 5870 5870 5871 5872 5874 5876 5879 5881 5882 5884 5885 5886 5888 5890 5892 5895 5898 5900 5902 5904 5904 5903 5904 5906 5909 5911 5913 5914 5914 5915 5915 5916 5915 5915 5915 5916 5916 5917 5917 5917 5917 5917 5917 5917 5917 5916 5917 5917 5917
5842 5842 5841 5841 5840 5840 5840 5840 5840 5839 5839 5838 5838 5838 5838 5838 5838 5838 5838 5837 5837 5838 5839 5839 5841 5842 5842 5841 5842 5845 5848 5850 5854 5856 5858 5860 5863 5865 5866 5867 5868 5869 5870 5872 5875 5877 5878 5880 5881 5883 5886 5888 5890 5893 5895 5897 5898 5900 5902 5903 5902 5903 5905 5907 5910 5913 5914 5915 5915 5915 5915 5915 5915 5915 5916 5916 5916 5916 5916 5917 5917 5917 5917 5916 5916 5916 5916 5917
5839 5839 5838 5837 5837 5836 5836 5836 5836 5836 5836 5835 5835 5835 5835 5835 5835 5835 5835 5835 5832 5833 5836 5836 5837 5839 5839 5837 5838 5841 5844 5846 5850 5853 5854 5856 5859 5861 5863 5864 5866 5867 5869 5871 5872 5874 5875 5877 5879 5884 5887 5889 5890 5892 5893 5895 5897 5899 5901 5901 5901 5902 5903 5905 5908 5911 5913 5914 5915 5915 5915 5915 5915 5915 5915 5915 5915 5915 5916 5916 5916 5916 5916 5916 5915 5915 5915 5916
5835 5835 5835 5834 5833 5833 5832 5832 5832 5832 5832 5832 5832 5831 5831 5832 5831 5832 5833 5833 5829 5828 5831 5832 5833 5836 5835 5834 5834 5836 5840 5844 5847 5848 5850 5852 5854 5857 5860 5861 5864 5866 5868 5869 5869 5871 5872 5875 5880 5884 5886 5887 5888 5890 5891 5893 5896 5897 5898 5899 5900 5901 5902 5903 5906 5909 5911 5912 5913 5913 5914 5914 5915 5915 5915 5915 5915 5914 5915 5915 5915 5916 5916 5916 5915 5915 5915 5916
5831 5831 5831 5830 5830 5829 5829 5828 5828 5828 5828 5828 5828 5827 5827 5828 5828 5829 5829 5832 5830 5824 5824 5828 5830 5832 5831 5830 5830 5832 5836 5841 5843 5844 5845 5848 5850 5853 5856 5858 5861 5864 5865 5866 5867 5870 5872 5875 5879 5882 5883 5883 5885 5887 5889 5891 5894 5895 5896 5898 5899 5899 5900 5902 5905 5907 5909 5910 5911 5912 5912 5913 5914 5914 5914 5914 5914 5914 5914 5914 5914 5915 5915 5915 5915 5915 5915 5916
5827 5827 5827 5826 5826 5825 5824 5825 5824 5824 5825 5825 5824 5823 5824 5824 5824 5826 5826 5828 5829 5823 5819 5822 5826 5828 5827 5826 5827 5830 5833 5836 5838 5839 5841 5844 5846 5849 5852 5855 5858 5860 5862 5864 5866 5869 5871 5875 5877 5878 5880 5881 5882 5885 5887 5889 5892 5894 5895 5897 5898 5899 5900 5901 5903 5905 5906 5907 5909 5910 5911 5912 5912 5913 5913 5913 5913 5913 5913 5913 5913 5914 5914 5914 5914 5915 5915 5916
5823 5823 5822 5822 5822 5821 5820 5820 5820 5820 5821 5821 5821 5820 5820 5820 5820 5822 5822 5824 5826 5822 5818 5818 5820 5823 5823 5823 5823 5826 5829 5832 5835 5835 5837 5841 5843 5845 5848 5851 5853 5857 5859 5861 5864 5866 5870 5873 5874 5875 5877 5878 5879 5882 5885 5888 5891 5892 5894 5896 5898 5898 5899 5900 5901 5902 5903 5904 5907 5908 5909 5910 5911 5911 5912 5912 5912 5912 5912 5911 5912 5912 5913 5913 5914 5914 5915 5915
5819 5818 5818 5818 5817 5816 5816 5816 5816 5816 5816 5816 5817 5817 5816 5816 5816 5817 5818 5819 5822 5820 5817 5815 5815 5818 5819 5819 5819 5821 5825 5828 5830 5830 5832 5837 5839 5840 5843 5845 5849 5853 5856 5858 5860 5864 5868 5870 5871 5873 5874 5876 5877 5879 5882 5886 5888 5890 5893 5896 5897 5897 5897 5898 5899 5900 5901 5903 5905 5905 5906 5907 5908 5909 5910 5910 5911 5911 5911 5911 5911 5911 5912 5912 5912 5913 5913 5914
5814 5814 5814 5813 5813 5812 5811 5811 5811 5812 5812 5812 5813 5813 5812 5812 5812 5813 5813 5814 5817 5817 5815 5812 5812 5813 5815 5815 5815 5817 5821 5825 5825 5825 5828 5833 5835 5836 5838 5841 5845 5849 5852 5854 5856 5860 5865 5866 5868 5869 5871 5872 5873 5876 5880 5883 5886 5889 5893 5896 5896 5896 5896 5896 5897 5898 5900 5902 5902 5902 5903 5904 5906 5908 5908 5908 5909 5910 5910 5910 5910 5910 5911 5911 5911 5912 5912 5912
5809 5809 5810 5809 5809 5808 5807 5806 5806 5807 5807 5808 5808 5808 5808 5808 5808 5809 5809 5810 5813 5813 5812 5809 5809 5810 5811 5811 5812 5813 5817 5820 5820 5821 5825 5828 5830 5832 5834 5837 5841 5845 5848 5849 5852 5859 5863 5863 5865 5867 5867 5869 5872 5876 5879 5881 5884 5889 5892 5894 5894 5894 5894 5894 5895 5896 5897 5898 5897 5899 5900 5901 5903 5906 5906 5907 5908 5908 5909 5909 5909 5909 5909 5910 5911 5911 5911 5911
5804 5804 5805 5804 5804 5804 5804 5802 5801 5802 5802 5803 5803 5803 5804 5803 5804 5804 5804 5806 5809 5809 5809 5807 5806 5806 5808 5808 5809 5809 5812 5815 5815 5816 5819 5821 5824 5827 5831 5834 5838 5841 5842 5845 5849 5856 5859 5860 5862 5864 5865 5868 5872 5876 5878 5880 5884 5888 5890 5890 5892 5892 5891 5892 5892 5893 5894 5893 5894 5897 5898 5898 5900 5902 5904 5905 5906 5907 5908 5908 5908 5908 5908 5909 5910 5910 5910 5909
5799 5799 5799 5800 5799 5799 5799 5798 5797 5797 5797 5798 5798 5799 5799 5799 5800 5800 5799 5802 5805 5805 5805 5805 5803 5803 5805 5806 5805 5806 5809 5810 5810 5811 5813 5816 5819 5823 5826 5830 5832 5834 5836 5839 5844 5849 5854 5856 5857 5859 5863 5867 5872 5874 5875 5878 5882 5886 5886 5887 5888 5888 5889 5889 5889 5891 5890 5888 5892 5896 5897 5896 5896 5898 5901 5903 5905 5906 5906 5907 5907 5907 5907 5908 5908 5909 5909 5908
5794 5793 5794 5794 5794 5794 5794 5793 5793 5792 5792 5793 5794 5794 5794 5795 5796 5795 5795 5800 5801 5801 5801 5801 5800 5800 5801 5802 5802 5802 5805 5806 5806 5807 5809 5811 5813 5816 5819 5823 5825 5827 5829 5832 5837 5843 5847 5849 5851 5854 5859 5864 5868 5870 5872 5876 5879 5881 5882 5883 5885 5885 5886 5886 5886 5887 5885 5885 5891 5895 5895 5893 5892 5895 5899 5900 5902 5904 5904 5906 5906 5907 5907 5907 5907 5907 5908 5907
5788 5788 5788 5788 5789 5789 5788 5788 5788 5788 5788 5788 5789 5790 5790 5790 5790 5790 5793 5797 5797 5796 5797 5797 5797 5797 5797 5798 5798 5798 5801 5802 5802 5803 5805 5807 5809 5812 5815 5818 5820 5822 5824 5827 5832 5837 5841 5845 5847 5851 5855 5859 5863 5865 5867 5871 5873 5875 5877 5879 5880 5881 5882 5882 5882 5883 5881 5884 5891 5893 5892 5889 5888 5893 5897 5898 5900 5901 5902 5903 5904 5905 5906 5905 5906 5906 5906 5906
5782 5782 5782 5782 5783 5783 5783 5783 5783 5783 5784 5784 5783 5784 5785 5784 5784 5787 5792 5794 5792 5792 5793 5792 5793 5793 5793 5793 5793 5795 5797 5799 5799 5799 5801 5803 5805 5809 5812 5815 5817 5820 5823 5826 5830 5833 5837 5840 5843 5847 5851 5854 5858 5860 5862 5865 5868 5870 5872 5875 5876 5876 5877 5877 5878 5880 5880 5884 5889 5890 5888 5885 5887 5892 5895 5897 5898 5899 5900 5901 5902 5903 5903 5904 5904 5904 5904 5904
5776 5776 5776 5776 5777 5778 5777 5777 5777 5777 5779 5779 5778 5778 5778 5778 5780 5786 5789 5789 5788 5788 5788 5787 5788 5789 5789 5790 5789 5791 5794 5795 5796 5796 5797 5799 5802 5804 5808 5810 5813 5816 5820 5823 5826 5829 5832 5835 5839 5843 5846 5851 5854 5857 5859 5863 5867 5868 5871 5873 5872 5872 5874 5875 5877 5878 5881 5884 5885 5886 5884 5882 5887 5892 5894 5896 5897 5896 5897 5898 5899 5900 5901 5901 5901 5902 5903 5903
5769 5770 5770 5769 5770 5771 5772 5772 5771 5771 5772 5773 5773 5771 5772 5774 5778 5783 5784 5784 5783 5783 5783 5784 5784 5785 5786 5786 5786 5788 5791 5792 5793 5793 5793 5795 5797 5801 5804 5807 5809 5812 5815 5817 5820 5823 5826 5831 5838 5841 5843 5848 5852 5855 5858 5861 5864 5866 5868 5868 5867 5869 5873 5875 5876 5877 5880 5881 5881 5881 5880 5881 5886 5890 5892 5893 5894 5894 5895 5896 5896 5897 5898 5898 5899 5900 5901 5901
5762 5762 5763 5763 5764 5765 5766 5765 5765 5765 5766 5767 5766 5765 5768 5771 5775 5777 5777 5778 5778 5779 5780 5780 5780 5781 5782 5782 5782 5784 5787 5788 5789 5790 5791 5792 5794 5796 5799 5803 5806 5809 5812 5814 5816 5819 5822 5828 5835 5838 5839 5844 5848 5851 5855 5857 5859 5861 5862 5862 5864 5868 5872 5874 5873 5875 5877 5876 5875 5876 5877 5880 5883 5885 5888 5891 5892 5893 5894 5894 5894 5895 5895 5896 5896 5898 5899 5899
5755 5755 5755 5756 5757 5758 5758 5759 5759 5759 5759 5760 5760 5762 5765 5767 5769 5771 5772 5773 5774 5775 5776 5776 5775 5777 5778 5779 5779 5780 5783 5784 5785 5787 5788 5788 5790 5792 5795 5799 5801 5804 5808 5811 5814 5816 5819 5825 5831 5833 5835 5840 5844 5848 5852 5854 5855 5857 5858 5860 5863 5867 5869 5869 5869 5870 5871 5871 5871 5873 5875 5878 5880 5882 5886 5888 5889 5891 5891 5891 5892 5892 5893 5893 5894 5896 5897 5897
5747 5747 5747 5748 5750 5751 5751 5752 5752 5752 5752 5752 5754 5757 5760 5761 5764 5766 5766 5767 5768 5770 5771 5771 5771 5772 5774 5775 5776 5777 5779 5780 5781 5783 5784 5784 5787 5790 5792 5795 5797 5800 5804 5806 5808 5811 5815 5820 5825 5828 5831 5835 5840 5843 5844 5848 5850 5852 5855 5858 5861 5862 5863 5864 5865 5865 5866 5867 5867 5869 5872 5874 5876 5879 5883 5885 5887 5888 5889 5889 5889 5890 5890 5892 5893 5894 5895 5895
5740 5740 5739 5741 5742 5743 5744 5744 5744 5745 5744 5746 5749 5752 5754 5757 5759 5760 5760 5761 5762 5763 5765 5766 5767 5768 5769 5771 5773 5774 5775 5776 5778 5779 5780 5781 5784 5788 5790 5791 5793 5796 5800 5802 5803 5806 5810 5813 5818 5823 5826 5829 5832 5833 5835 5840 5844 5846 5849 5852 5854 5857 5859 5860 5861 5862 5864 5864 5865 5866 5867 5868 5872 5877 5880 5882 5884 5886 5886 5887 5887 5888 5889 5890 5891 5892 5893 5893
5731 5731 5731 5733 5733 5734 5736 5736 5736 5737 5738 5741 5744 5746 5748 5751 5752 5753 5754 5755 5756 5758 5760 5762 5763 5764 5765 5767 5769 5770 5771 5773 5775 5776 5776 5779 5782 5785 5788 5788 5790 5792 5795 5797 5799 5802 5805 5807 5812 5817 5820 5821 5824 5826 5830 5837 5839 5840 5843 5845 5848 5851 5854 5856 5857 5858 5860 5861 5862 5863 5862 5864 5870 5874 5877 5880 5882 5884 5885 5885 5886 5887 5888 5889 5889 5890 5891 5892
5721 5722 5723 5724 5725 5725 5727 5728 5729 5730 5731 5734 5737 5739 5741 5743 5745 5746 5747 5748 5750 5752 5754 5755 5757 5758 5759 5761 5764 5766 5767 5769 5772 5773 5774 5777 5779 5782 5785 5787 5788 5789 5789 5791 5793 5796 5799 5801 5806 5811 5812 5815 5821 5825 5830 5834 5836 5838 5840 5842 5845 5848 5850 5852 5852 5853 5856 5857 5858 5859 5859 5861 5867 5872 5874 5877 5880 5881 5883 5884 5884 5885 5886 5887 5888 5889 5889 5890
5711 5712 5713 5716 5716 5717 5718 5720 5721 5723 5724 5727 5730 5732 5734 5736 5738 5739 5740 5741 5743 5745 5747 5749 5751 5753 5755 5757 5759 5762 5763 5765 5768 5770 5772 5775 5777 5780 5783 5784 5785 5785 5785 5785 5788 5793 5796 5797 5800 5804 5808 5813 5818 5822 5825 5828 5831 5834 5835 5838 5843 5845 5846 5847 5847 5850 5854 5855 5855 5857 5857 5859 5864 5869 5872 5874 5877 5879 5880 5881 5882 5883 5884 5884 5885 5886 5887 5888
5702 5702 5704 5707 5708 5708 5710 5711 5713 5715 5717 5720 5722 5724 5726 5728 5730 5732 5733 5734 5737 5739 5741 5744 5747 5749 5751 5753 5755 5757 5760 5762 5765 5767 5770 5772 5774 5776 5779 5780 5781 5781 5781 5781 5784 5788 5791 5791 5794 5800 5805 5809 5813 5816 5818 5821 5825 5827 5829 5833 5837 5839 5842 5844 5846 5850 5852 5851 5853 5855 5854 5857 5862 5866 5869 5871 5874 5877 5877 5878 5879 5880 5881 5882 5883 5883 5884 5885
5692 5693 5694 5697 5699 5700 5701 5702 5704 5707 5710 5712 5714 5716 5719 5721 5723 5725 5727 5729 5731 5734 5736 5739 5742 5744 5746 5748 5750 5752 5755 5758 5761 5763 5765 5768 5771 5773 5776 5776 5777 5777 5777 5779 5781 5783 5785 5786 5789 5794 5798 5801 5804 5806 5809 5813 5817 5820 5824 5828 5831 5834 5839 5841 5843 5847 5846 5846 5850 5851 5850 5854 5860 5864 5866 5868 5872 5874 5875 5875 5876 5877 5878 5879 5880 5881 5881 5882
5682 5683 5684 5687 5690 5691 5692 5694 5696 5699 5701 5704 5706 5709 5712 5714 5717 5720 5721 5723 5725 5728 5731 5734 5736 5739 5741 5743 5745 5748 5751 5754 5756 5758 5761 5765 5768 5771 5772 5773 5773 5774 5775 5776 5778 5780 5780 5782 5785 5788 5790 5793 5796 5799 5804 5809 5812 5815 5819 5823 5826 5830 5834 5836 5839 5841 5840 5842 5846 5847 5847 5852 5858 5861 5863 5866 5869 5871 5872 5872 5873 5874 5875 5876 5877 5877 5878 5879
5672 5673 5675 5677 5680 5682 5684 5686 5688 5690 5693 5696 5699 5702 5704 5707 5710 5713 5715 5717 5719 5722 5725 5728 5730 5733 5735 5738 5741 5744 5747 5749 5751 5754 5758 5762 5765 5768 5769 5770 5771 5772 5772 5774 5775 5776 5776 5778 5781 5784 5787 5791 5796 5802 5807 5809 5810 5813 5817 5820 5824 5827 5830 5833 5835 5835 5837 5840 5842 5843 5847 5851 5854 5858 5861 5863 5866 5868 5869 5870 5870 5871 5872 5873 5874 5874 5875 5875
5663 5664 5666 5667 5670 5673 5675 5677 5680 5682 5685 5688 5691 5694 5697 5699 5702 5705 5708 5711 5713 5715 5718 5721 5723 5726 5729 5733 5736 5740 5743 5744 5746 5750 5754 5758 5761 5764 5766 5768 5769 5769 5769 5770 5772 5774 5774 5774 5777 5780 5784 5790 5796 5802 5805 5807 5808 5812 5816 5819 5822 5825 5828 5829 5830 5832 5836 5838 5838 5842 5846 5848 5850 5854 5858 5860 5863 5865 5866 5867 5868 5869 5870 5871 5871 5871 5872 5872
5653 5655 5657 5657 5660 5663 5666 5669 5671 5674 5677 5680 5684 5687 5689 5692 5695 5697 5700 5704 5707 5709 5711 5715 5718 5721 5724 5728 5730 5734 5738 5739 5741 5745 5751 5754 5756 5760 5764 5766 5767 5766 5766 5768 5770 5772 5772 5773 5775 5777 5781 5786 5791 5796 5800 5802 5804 5807 5811 5815 5819 5821 5823 5825 5827 5830 5833 5833 5835 5841 5843 5843 5847 5851 5854 5858 5860 5861 5863 5864 5865 5866 5867 5868 5868 5868 5869 5869
5643 5645 5647 5648 5651 5653 5656 5660 5663 5665 5668 5672 5676 5679 5682 5684 5687 5690 5694 5697 5700 5703 5705 5708 5712 5715 5717 5720 5724 5728 5732 5734 5736 5741 5747 5750 5751 5755 5760 5763 5763 5764 5764 5766 5768 5769 5770 5773 5775 5776 5778 5781 5785 5790 5794 5797 5799 5802 5806 5810 5814 5817 5819 5821 5824 5827 5829 5830 5834 5838 5838 5839 5844 5848 5851 5855 5857 5858 5860 5860 5861 5862 5864 5865 5865 5865 5866 5866
5632 5635 5636 5639 5642 5643 5645 5650 5654 5657 5660 5663 5667 5671 5674 5677 5680 5684 5687 5690 5693 5697 5700 5703 5706 5709 5712 5715 5719 5723 5727 5730 5733 5738 5743 5746 5748 5751 5756 5759 5760 5761 5761 5763 5764 5765 5767 5771 5773 5775 5775 5777 5780 5785 5788 5791 5794 5797 5800 5805 5809 5812 5814 5816 5819 5822 5824 5826 5830 5832 5833 5835 5840 5845 5848 5850 5852 5853 5855 5857 5858 5859 5861 5861 5862 5863 5863 5863
5622 5625 5627 5630 5634 5635 5637 5640 5644 5649 5652 5655 5659 5664 5667 5670 5674 5677 5680 5683 5688 5691 5694 5698 5700 5703 5707 5711 5714 5718 5721 5724 5728 5732 5736 5739 5743 5747 5751 5755 5757 5757 5758 5760 5761 5762 5765 5767 5769 5771 5771 5772 5776 5780 5783 5787 5789 5790 5793 5798 5803 5806 5809 5812 5815 5818 5820 5823 5826 5827 5827 5831 5838 5841 5843 5845 5847 5849 5851 5853 5855 5856 5857 5858 5859 5860 5860 5860
5613 5616 5619 5622 5625 5628 5629 5632 5635 5640 5644 5647 5651 5656 5660 5663 5667 5670 5673 5677 5682 5686 5688 5692 5695 5698 5702 5705 5708 5712 5715 5719 5723 5728 5731 5733 5737 5742 5746 5750 5752 5753 5754 5756 5757 5759 5761 5762 5764 5765 5765 5768 5773 5776 5779 5782 5782 5780 5785 5793 5798 5801 5805 5808 5811 5814 5817 5819 5821 5821 5824 5830 5835 5837 5839 5841 5843 5845 5847 5849 5851 5853 5854 5854 5856 5857 5857 5857